Probability
7 6 4 3 2 2 1 0 0 0 0 0 0 0 0 0 0 0 0 0 0 0 0 0 0 0 0 0 0 0 0 0 0 0 0 0 0 0
4 3 2 2 1 1 0 0 0 0 0 0 0 0 0 0 0 0 0 0 0 0 0 0 0 0 0 0 0 0 0 0 0 0 0 0 0 0
1 0 0 0 0 0 0 0 0 0 0 0 0 0 0 0 0 0 0 0 0 0 0 0 0 0 0 0 0 0 0 0 0 0 0 0 0 0
0 0 0 0 0 0 0 0 0 0 0 0 0 0 0 0 0 0 0 0 0 0 0 0 0 0 0 0 0 0 0 0 0 0 0 0 0 0
0 0 0 0 0 0 0 0 0 0 0 0 0 0 0 0 0 0 0 0 0 0 0 0 0 0 0 0 0 0 0 0 0 0 0 0 0 0
0 0 0 0 0 0 0 0 0 0 0 0 0 0 0 0 0 0 0 0 0 0 0 0 0 0 0 0 0 0 0 0 0 0 0 0 0 0
0 0 0 0 0 0 0 0 0 0 0 0 0 0 0 0 0 0 0 0 0 0 0 0 0 0 0 0 0 0 0 0 0 0 0 0 0 0
0 0 0 0 0 0 0 0 0 0 0 0 0 0 0 0 0 0 0 0 0 0 0 0 0 0 0 0 0 0 0 0 0 0 0 0 0 0
0 0 0 0 0 0 0 0 0 0 0 0 0 0 0 0 0 0 0 0 0 0 0 0 0 0 0 0 0 0 0 0 0 0 0 0 0 0
0 0 0 0 0 0 0 0 0 0 0 0 0 0 0 0 0 0 0 0 0 0 0 0 0 0 0 0 0 0 0 0 0 0 0 0 0 0
0 0 0 0 0 0 0 0 0 0 0 0 0 0 0 0 0 0 0 0 0 0 0 0 0 0 0 0 0 0 0 0 0 0 0 0 0 0
0 0 0 0 0 0 0 0 0 0 0 0 0 0 0 0 0 0 0 0 0 0 0 0 0 0 0 0 0 0 0 0 0 0 0 0 0 0
0 0 0 0 0 0 0 0 0 0 0 0 0 0 0 0 0 0 0 0 0 0 0 0 0 0 0 0 0 0 0 0 0 0 0 0 0 0
0 0 0 0 0 0 0 0 0 0 0 0 0 0 0 0 0 0 0 0 0 0 0 0 0 0 0 0 0 0 0 0 0 0 0 0 0 0
0 0 0 0 0 0 0 0 0 0 0 0 0 0 0 0 0 0 0 0 0 0 0 0 0 0 0 0 0 0 0 0 0 0 0 0 0 0
0 0 0 0 0 0 0 0 0 0 0 0 0 0 0 0 0 0 0 0 0 0 0 0 0 0 0 0 0 0 0 0 0 0 0 0 0 0
0 0 0 0 0 0 0 0 0 0 0 0 0 0 0 0 0 0 0 0 0 0 0 0 0 0 0 0 0 0 0 0 0 0 0 0 0 0
0 0 0 0 0 0 0 0 0 0 0 0 0 0 0 0 0 0 0 0 0 0 0 0 0 0 0 0 0 0 0 0 0 0 0 0 0 0
0 0 0 0 0 0 0 0 0 0 0 0 0 0 0 0 0 0 0 0 0 0 0 0 0 0 0 0 0 0 0 0 0 0 0 0 0 0
0 0 0 0 0 0 0 0 0 0 0 0 0 0 0 0 0 0 0 0 0 0 0 0 0 0 0 0 0 0 0 0 0 0 0 0 0 0
0 0 0 0 0 0 0 0 0 0 0 0 0 0 0 0 0 0 0 0 0 0 0 0 0 0 0 0 0 0 0 0 0 0 0 0 0 0
0 0 0 0 0 0 0 0 0 0 0 0 0 0 0 0 0 0 0 0 0 0 0 0 0 0 0 0 0 0 0 0 0 0 0 0 0 0
0 0 0 0 0 0 0 0 0 0 0 0 0 0 0 0 0 0 0 0 0 0 0 0 0 0 0 0 0 0 0 0 0 0 0 0 0 0
Wind_Speed
6 6 5 4 4 4 3 4 5 3 1 1 1 2 1 2 2 1 1 2 2 3 4 4 4 4 3 3 4 5 6 7 9 10 12 14 16 17
4 5 4 3 3 3 3 3 3 4 3 1 1 1 3 4 4 3 2 3 3 2 4 4 5 5 4 4 5 6 6 8 9 11 12 14 15 17
4 6 6 6 4 4 4 4 3 4 5 2 2 3 4 5 4 4 3 3 2 3 2 3 4 5 5 5 6 7 7 9 10 12 13 14 16 18
5 7 7 7 7 5 5 5 4 4 6 5 3 4 5 4 4 4 4 3 2 3 3 3 3 5 6 6 7 7 8 10 11 12 13 15 16 18
8 8 8 9 9 6 6 5 4 6 5 6 3 3 3 3 4 4 5 3 3 4 4 3 4 4 4 6 7 7 9 10 11 12 13 14 16 18
9 8 8 8 8 7 7 6 7 8 7 6 4 3 3 3 3 4 4 4 3 4 5 4 4 4 5 5 6 7 8 9 11 11 12 13 14 15
8 8 8 10 10 7 7 6 7 7 6 5 4 3 3 3 3 3 3 3 3 3 4 3 3 3 3 4 5 7 8 9 10 11 12 12 13 13
8 7 8 9 10 12 11 10 9 8 6 4 3 3 2 2 2 2 2 3 4 4 3 4 3 3 3 3 5 7 8 9 10 10 11 11 12 11
6 6 7 6 7 7 9 11 10 9 7 5 4 2 1 0 1 3 2 2 2 4 3 3 3 3 4 4 7 8 8 9 9 10 10 11 11 11
6 7 7 5 5 7 7 7 6 6 5 4 3 1 1 2 2 1 1 2 3 3 2 2 4 4 4 4 6 7 8 9 9 10 10 10 11 10
5 6 7 6 8 10 8 7 6 4 5 7 6 5 4 4 3 3 4 4 3 4 2 2 3 4 4 3 4 7 8 9 9 9 9 9 10 9
4 4 7 8 9 10 7 7 6 3 4 5 7 7 6 6 6 3 2 2 1 3 3 2 3 3 5 4 4 4 5 7 9 9 9 9 8 5
4 3 3 8 10 10 7 5 4 3 4 5 5 4 4 4 4 3 1 2 1 1 3 2 2 3 2 4 4 4 4 4 4 5 6 7 7 6
5 3 3 7 8 8 6 6 7 7 4 5 4 4 3 3 3 3 4 2 1 1 3 1 1 2 2 3 4 5 5 4 4 4 4 5 5 5
5 8 7 7 6 4 5 7 6 5 4 4 3 2 1 1 2 3 5 5 4 4 4 3 2 2 1 2 4 4 4 5 5 5 4 4 3 2
4 5 6 5 4 3 3 4 3 3 3 3 2 1 2 3 3 3 3 3 4 5 6 5 4 2 2 2 2 3 4 5 5 6 5 4 4 3
6 3 2 2 1 1 2 2 2 3 3 2 2 2 2 3 2 2 2 2 3 3 5 5 5 3 1 1 3 4 4 4 5 5 5 4 4 5
7 4 3 3 3 3 3 2 2 2 3 3 3 2 2 1 2 2 2 2 2 3 3 4 5 5 5 3 1 3 4 4 5 5 4 4 4 5
5 4 4 4 3 4 4 4 4 3 3 4 3 2 2 1 1 1 2 2 2 3 3 3 3 3 4 5 6 3 3 4 5 5 4 4 3 4
4 4 4 4 4 4 5 4 4 4 3 4 3 3 2 2 1 1 1 1 1 2 4 3 3 2 1 2 3 4 5 3 4 5 5 3 3 3
5 4 5 5 4 5 5 5 5 5 4 4 4 4 3 3 2 1 2 2 2 2 3 3 4 5 2 2 3 5 5 4 3 2 4 4 4 4
6 6 5 5 5 5 5 5 5 5 5 4 4 4 4 3 3 3 3 2 1 1 1 3 4 4 4 4 3 4 6 6 6 6 5 4 2 3
7 6 6 5 5 5 5 6 7 6 6 6 5 5 4 3 3 3 3 3 2 1 2 3 4 4 3 2 2 3 5 6 5 5 5 8 8 6
Wind_Direction
207 197 192 185 175 180 173 162 151 145 125 21 48 9 23 66 57 43 331 299 277 245 242 239 237 238 246 258 270 278 281 281 278 273 267 264 259 253
190 180 174 161 151 148 145 136 143 141 135 123 73 31 33 48 41 28 10 7 338 285 257 251 248 246 249 260 271 278 280 282 281 278 273 266 262 258
152 145 133 119 116 112 111 107 105 113 115 83 43 39 48 38 17 18 27 26 352 342 315 273 260 257 259 266 274 279 282 284 283 281 278 273 265 258
98 113 112 106 98 96 95 95 94 100 116 109 59 38 41 33 26 26 15 10 351 355 356 334 292 275 270 271 276 281 284 285 285 283 280 277 271 264
74 86 98 101 93 89 89 88 88 91 95 105 84 43 32 23 22 12 9 358 355 9 7 355 342 323 297 283 281 284 286 288 289 286 283 280 276 268
77 76 81 90 95 95 91 90 94 92 90 92 80 45 25 359 29 12 358 347 348 0 359 351 349 342 327 316 302 295 291 291 292 290 288 284 279 272
84 79 78 83 86 89 97 96 98 97 92 89 80 56 27 20 10 345 354 331 333 351 343 338 344 338 328 320 314 313 310 303 300 299 297 294 288 279
93 87 80 70 77 82 89 92 101 107 107 100 89 79 39 12 350 358 4 11 340 330 350 324 338 327 315 307 310 315 316 312 310 310 309 306 302 292
101 93 87 76 74 82 79 74 75 88 110 121 113 121 115 7 27 16 14 16 298 300 351 321 322 313 304 307 314 317 318 318 317 316 316 315 310 304
97 101 98 79 83 96 89 75 65 63 77 92 126 159 177 185 159 159 263 330 318 321 21 333 312 307 305 306 312 319 320 320 319 319 320 321 320 316
94 99 101 92 96 99 94 86 65 38 52 64 77 83 74 87 104 61 33 36 354 316 342 351 306 309 308 303 304 313 315 317 317 318 320 323 323 322
91 88 99 106 101 99 99 96 79 37 34 48 49 45 44 44 55 76 97 75 7 317 311 341 311 330 322 305 308 315 317 312 314 315 318 322 326 325
129 120 115 115 105 102 102 97 101 103 78 76 62 42 29 24 22 24 51 121 119 289 294 329 318 324 303 300 311 317 324 319 318 315 315 320 328 335
151 153 149 131 111 103 96 89 89 91 82 72 61 42 29 12 354 3 16 31 129 233 300 342 326 306 314 316 310 315 321 329 330 323 320 319 321 337
158 163 158 138 107 87 77 81 83 85 86 80 72 43 345 336 3 11 9 12 12 6 9 8 2 328 343 312 309 316 320 325 336 333 331 334 329 329
134 150 142 120 94 77 63 71 86 106 117 117 120 62 23 29 27 23 18 7 14 346 341 357 4 17 6 330 323 323 324 323 329 333 332 338 348 348
129 100 93 94 92 71 68 85 92 97 107 113 103 75 47 38 16 10 29 33 32 346 332 334 339 342 9 4 348 334 329 328 329 334 338 349 2 7
134 138 157 167 172 170 158 146 136 137 142 133 116 106 89 67 27 10 29 40 22 345 328 324 344 358 358 338 337 337 335 330 331 340 350 354 358 4
141 160 171 179 181 175 171 167 170 170 157 143 137 133 121 99 78 34 19 26 12 351 333 331 358 24 16 341 319 356 349 328 340 349 352 352 353 353
168 170 180 182 177 175 176 173 169 162 156 155 153 149 138 124 105 77 59 60 27 7 360 353 352 347 305 278 295 316 353 353 346 347 341 339 341 340
186 181 181 182 181 178 176 174 172 171 169 165 167 166 160 145 136 133 120 95 84 46 21 340 304 317 298 17 5 338 328 344 3 349 339 346 348 353
184 185 186 186 183 180 176 172 172 173 172 171 175 175 172 160 155 153 142 128 120 102 8 327 340 7 30 33 0 327 332 339 349 4 22 27 6 351
187 186 187 188 187 182 178 177 178 181 181 179 178 178 173 167 162 157 151 141 133 104 44 7 1 10 9 9 356 343 348 349 350 360 357 3 20 22